[[{"header":{"parameterUnit":"m.s-1","parameterCategory":1,"la1":30.2991,"la2":30.254,"lo1":-89.0895,"lo2":-89.0444,"dy":0.0017,"dx":0.0017,"nx":28,"ny":28,"refTime":"2024-03-17T21:00:00:Z","depth":0,"parameterNumber":2,"parameterNumberName":"U-component_of_WINDS"},"data":[0,0,0,0,0,0,0,0,0,0,0,0,0,0,0,0,0,0,0,0,0,0,0,0,0,0,0,0,0,0,0,0,0,0,0,0,0,0,0,0,0,0,0,0,0,0,0,0,0,0,0,0,0,0,0,0,0,0,-2.8411,-2.8412,0,-2.8512,-2.8513,-2.8514,-2.8444,-2.8441,-2.8438,-2.8435,-2.8538,-2.8543,-2.8549,0,0,0,0,0,0,0,0,0,0,0,0,0,-2.8156,-2.8162,-2.8411,-2.8412,-2.8414,-2.8511,-2.8513,-2.8514,-2.8445,-2.8441,-2.8437,-2.8434,-2.8536,-2.8542,-2.8549,0,0,0,0,0,0,0,0,0,0,0,0,0,-2.8263,-2.8163,-2.8411,-2.8391,-2.839,-2.8511,-2.8513,-2.8514,-2.8446,-2.8441,-2.8436,-2.8432,-2.8534,-2.8542,-2.855,-2.8696,0,0,-2.8576,-2.858,0,0,0,0,0,0,0,0,-2.8257,-2.8272,-2.8393,-2.8392,-2.8392,-2.8461,-2.846,-2.8575,-2.8447,-2.8425,-2.8435,-2.843,-2.8516,-2.8525,-2.8554,-2.8701,-2.8705,-2.8577,-2.8582,-2.8585,-2.8588,0,0,0,0,0,0,0,-2.825,-2.8268,-2.8451,-2.8394,-2.8394,-2.8376,-2.8386,-2.8482,-2.8495,-2.8426,-2.8421,-2.8434,-2.8515,-2.8547,-2.8556,-2.8707,-2.8576,-2.8584,-2.8589,-2.8592,-2.8975,-2.898,0,0,0,0,0,0,-2.8244,-2.8262,-2.8448,-2.8454,-2.8312,-2.8384,-2.8395,-2.8443,-2.8494,-2.8497,-2.8438,-2.8431,-2.8534,-2.8547,-2.856,-2.8733,-2.8585,-2.8593,-2.8598,-2.897,-2.8976,-2.8982,0,0,0,0,0,0,-2.8239,-2.8262,-2.8443,-2.8357,-2.8378,-2.8394,-2.8448,-2.8448,-2.848,-2.8503,-2.8505,-2.8469,-2.8531,-2.8548,-2.8662,-2.8736,-2.8597,-2.8605,-2.8964,-2.8972,-2.8979,-2.9081,0,0,0,0,0,0,-2.8232,-2.826,-2.8317,-2.8358,-2.8383,-2.8546,-2.8453,-2.8453,-2.8494,-2.8486,-2.8532,-2.8535,-2.8529,-2.865,-2.8671,-2.8745,-2.8611,-2.8958,-2.8968,-2.8977,-2.9072,-2.9092,-2.9109,0,0,0,0,0,-2.8223,-2.8342,-2.832,-2.8343,-2.8455,-2.855,-2.8564,-2.8555,-2.8501,-2.8557,-2.8571,-2.8534,-2.8724,-2.8662,-2.8685,-2.8763,-2.8953,-2.8965,-2.8976,-2.9063,-2.9088,-2.9108,0,0,0,0,0,0,-2.8309,-2.8347,-2.8323,-2.8459,-2.8502,-2.8538,-2.8609,-2.8581,-2.864,-2.8629,-2.8614,-2.8625,-2.8745,-2.8765,-2.8696,-2.8905,-2.883,-2.8846,-2.8888,-2.8912,-2.893,-2.8923,-2.8618,0,0,0,0,0,-2.8344,-2.8419,-2.8448,-2.8565,-2.8587,-2.8595,-2.8636,-2.8624,-2.8668,-2.8686,-2.8709,-2.8752,-2.8821,-2.8867,-2.8932,-2.9073,-2.9082,-2.9138,-2.9156,-2.9171,-2.9186,-2.926,-2.9285,-2.9019,-2.9019,-2.9019,0,0,-2.8417,-2.8446,-2.8495,-2.8583,-2.8614,-2.8691,-2.8611,-2.8696,-2.8753,-2.8699,-2.8808,-2.8826,-2.8873,-2.9001,-2.9059,-2.9021,-2.9261,-2.9186,-2.9198,-2.9205,-2.9275,-2.93,-2.9322,-2.9027,-2.9026,-2.9024,0,0,-2.8589,-2.8619,-2.8719,-2.8752,-2.8801,-2.8804,-2.8828,-2.8869,-2.8878,-2.8988,-2.8948,-2.9014,-2.9134,-2.9169,-2.9202,-2.9384,-2.9351,-2.9405,-2.9503,-2.9576,-2.9597,-2.9615,-2.9679,-2.9703,-2.9419,-2.942,-2.942,0,-2.8673,-2.8788,-2.8774,-2.8862,-2.8901,-2.8855,-2.8955,-2.8988,-2.9055,-2.9083,-2.904,-2.9188,-2.9216,-2.9351,-2.9395,-2.9423,-2.9449,-2.9401,-2.9595,-2.9613,-2.963,-2.9691,-2.9715,-2.9426,-2.9425,-2.9425,-2.9424,0,-2.8889,-2.8969,-2.9044,-2.911,-2.9157,-2.9251,-2.925,-2.9299,-2.9283,-2.929,-2.9401,-2.9433,-2.9503,-2.9533,-2.9518,-2.9665,-2.9641,-2.9597,-2.9521,-2.9662,-2.9719,-2.9742,-2.9435,-2.9433,-2.9431,-2.9429,0,0,-2.9121,-2.9176,-2.9204,-2.9232,-2.9281,-2.9342,-2.9433,-2.9501,-2.9543,-2.959,-2.9665,-2.9766,-2.9724,-2.9762,-2.975,-2.9814,-2.9954,-2.9761,-2.9762,-2.9796,-3.0117,-3.015,-3.0178,-2.9931,-2.9936,-2.9939,-3.0113,0,-2.9296,-2.9455,-2.9443,-2.9593,-2.9666,-2.9621,-2.9699,-2.9737,-2.9746,-2.9808,-2.9817,-2.9888,-2.9829,-2.9851,-2.9912,-2.9924,-3.0018,-2.9911,-3.0001,-3.0004,-2.9992,-3.0208,-3.0244,-3.0406,-3.0135,-3.0139,-3.0141,0,-2.9522,-2.9576,-2.9733,-2.9769,-2.9799,-2.987,-2.993,-2.999,-3.0031,-3.0032,-3.0073,-3.005,-3.0139,-3.006,-3.0182,-3.011,-3.0145,-3.0156,-3.0162,-3.0171,-3.0082,-3.0223,-3.0458,-3.0482,-3.0176,-3.0174,-3.0171,0,-2.9676,-2.9788,-2.9895,-2.9921,-2.9965,-3.0016,-3.0037,-3.0073,-3.0113,-3.0165,-3.0191,-3.0253,-3.0287,-3.0334,-3.0327,-3.027,-3.0452,-3.0372,-3.0455,-3.0455,-3.0497,-3.0495,-3.0741,-3.0518,-3.0518,-3.0517,-3.0517,0,-2.9873,-2.9971,-2.9965,-3.0032,-3.0139,-3.0123,-3.0229,-3.0243,-3.0275,-3.0343,-3.0307,-3.037,-3.0357,-3.042,-3.0414,-3.0516,-3.0531,-3.0534,-3.0532,-3.0539,-3.0538,-3.0562,-3.0551,-3.0524,-3.0522,-3.0521,-3.052,0,-3.0064,-3.0064,-3.0178,-3.021,-3.022,-3.0297,-3.0324,-3.0386,-3.039,-3.0475,-3.0495,-3.0501,-3.0573,-3.057,-3.0652,-3.0648,-3.0773,-3.0757,-3.076,-3.0757,-3.084,-3.0833,-3.1112,-3.1148,-3.0901,-3.0903,-3.0905,0,-3.019,-3.0264,-3.0303,-3.0345,-3.0369,-3.0438,-3.0479,-3.0465,-3.0509,-3.0559,-3.0615,-3.0683,-3.0738,-3.0855,-3.0866,-3.0928,-3.0913,-3.1007,-3.0923,-3.0926,-3.0915,-3.0911,-3.0917,-3.1024,-3.1027,-3.1029,-3.1031,0,-3.0415,-3.041,-3.0471,-3.0532,-3.0581,-3.0628,-3.0671,-3.0707,-3.0698,-3.0748,-3.0822,-3.0863,-3.0946,-3.1014,-3.1072,-3.1092,-3.106,-3.1057,-3.1079,-3.1087,-3.1086,-3.1087,-3.0806,-3.1051,-3.1049,-3.1048,-3.1047,-3.1046,-3.0577,-3.064,-3.0677,-3.0745,-3.0775,-3.0815,-3.0875,-3.0885,-3.0946,-3.1013,-3.1,-3.1081,-3.1117,-3.1192,-3.1217,-3.1279,-3.1246,-3.1279,-3.1287,-3.1296,-3.1305,-3.1075,-3.129,-3.1289,-3.1289,-3.1288,-3.1288,0,-3.08,-3.082,-3.0883,-3.0944,-3.0997,-3.0961,-3.1005,-3.1052,-3.1124,-3.116,-3.1214,-3.1296,-3.1361,-3.1377,-3.1439,-3.1486,-3.1472,-3.1502,-3.1499,-3.1504,-3.1331,-3.1306,-3.1512,-3.1512,-3.1512,-3.1512,-3.1512,-3.1512,-3.0922,-3.1026,-3.1026,-3.1143,-3.1163,-3.1243,-3.1271,-3.1307,-3.1335,-3.1429,-3.1483,-3.1492,-3.152,-3.1583,-3.164,-3.1642,-3.1667,-3.1703,-3.17,-3.1539,-3.1516,-3.1495,-3.1471,-3.1708,-3.1709,-3.1867,-3.1869,-3.187]},{"header":{"parameterUnit":"m.s-1","parameterCategory":1,"la1":30.2991,"la2":30.254,"lo1":-89.0895,"lo2":-89.0444,"dy":0.0017,"dx":0.0017,"nx":28,"ny":28,"refTime":"2024-03-17T21:00:00:Z","depth":0,"parameterNumber":3,"parameterNumberName":"V-component_of_WINDS"},"data":[0,0,0,0,0,0,0,0,0,0,0,0,0,0,0,0,0,0,0,0,0,0,0,0,0,0,0,0,0,0,0,0,0,0,0,0,0,0,0,0,0,0,0,0,0,0,0,0,0,0,0,0,0,0,0,0,0,0,-6.8858,-6.8859,0,-6.8995,-6.8996,-6.8998,-6.8908,-6.8904,-6.89,-6.8896,-6.9032,-6.9039,-6.9047,0,0,0,0,0,0,0,0,0,0,0,0,0,-6.8512,-6.8519,-6.8857,-6.8859,-6.8861,-6.8994,-6.8996,-6.8998,-6.8909,-6.8904,-6.8899,-6.8894,-6.903,-6.9038,-6.9047,0,0,0,0,0,0,0,0,0,0,0,0,0,-6.8657,-6.8521,-6.8857,-6.8833,-6.8832,-6.8994,-6.8996,-6.8999,-6.891,-6.8904,-6.8898,-6.8892,-6.9027,-6.9038,-6.9049,-6.9241,0,0,-6.9083,-6.9088,0,0,0,0,0,0,0,0,-6.8649,-6.867,-6.8835,-6.8835,-6.8834,-6.8928,-6.8924,-6.908,-6.8912,-6.888,-6.8896,-6.8889,-6.9002,-6.9015,-6.9054,-6.9248,-6.9253,-6.9084,-6.9091,-6.9095,-6.9099,0,0,0,0,0,0,0,-6.8639,-6.8663,-6.8911,-6.8837,-6.8837,-6.8813,-6.8826,-6.8953,-6.8974,-6.8883,-6.8876,-6.8894,-6.9001,-6.9044,-6.9057,-6.9255,-6.9084,-6.9093,-6.91,-6.9105,-6.961,-6.9616,0,0,0,0,0,0,-6.8632,-6.8655,-6.8907,-6.8916,-6.8724,-6.8824,-6.8839,-6.8904,-6.8972,-6.8977,-6.8899,-6.8889,-6.9028,-6.9044,-6.9061,-6.9289,-6.9095,-6.9106,-6.9112,-6.9603,-6.9611,-6.9618,0,0,0,0,0,0,-6.8624,-6.8655,-6.8902,-6.8784,-6.8814,-6.8836,-6.891,-6.891,-6.8953,-6.8985,-6.8988,-6.894,-6.9023,-6.9045,-6.9197,-6.9293,-6.9111,-6.9121,-6.9595,-6.9605,-6.9615,-6.9748,0,0,0,0,0,0,-6.8615,-6.8653,-6.8728,-6.8786,-6.882,-6.9038,-6.8916,-6.8917,-6.8973,-6.8961,-6.9024,-6.9028,-6.902,-6.918,-6.9208,-6.9305,-6.913,-6.9587,-6.96,-6.9612,-6.9735,-6.9761,-6.9784,0,0,0,0,0,-6.8603,-6.876,-6.8733,-6.8763,-6.8915,-6.9043,-6.9062,-6.9051,-6.8981,-6.9055,-6.9076,-6.9026,-6.9278,-6.9197,-6.9227,-6.9328,-6.958,-6.9596,-6.9611,-6.9724,-6.9756,-6.9783,0,0,0,0,0,0,-6.8712,-6.8767,-6.8737,-6.8918,-6.8977,-6.9028,-6.9122,-6.9086,-6.9165,-6.9151,-6.9132,-6.9147,-6.9304,-6.9331,-6.924,-6.9516,-6.9417,-6.9439,-6.9493,-6.9524,-6.9548,-6.9538,-6.9139,0,0,0,0,0,-6.8757,-6.8858,-6.89,-6.9056,-6.9087,-6.91,-6.9155,-6.9141,-6.92,-6.9224,-6.9256,-6.9314,-6.9405,-6.9466,-6.9552,-6.9738,-6.9749,-6.9822,-6.9847,-6.9866,-6.9885,-6.9983,-7.0015,-6.9668,-6.9668,-6.9667,0,0,-6.8851,-6.8894,-6.8959,-6.9079,-6.9122,-6.9225,-6.9121,-6.9235,-6.931,-6.9241,-6.9386,-6.9411,-6.9474,-6.9642,-6.9718,-6.9669,-6.9983,-6.9886,-6.9901,-6.991,-7.0001,-7.0034,-7.0064,-6.9678,-6.9676,-6.9675,0,0,-6.9075,-6.9119,-6.9252,-6.9297,-6.9365,-6.9372,-6.9404,-6.946,-6.9474,-6.9619,-6.9569,-6.9657,-6.9816,-6.9862,-6.9907,-7.0145,-7.0101,-7.0173,-7.03,-7.0395,-7.0423,-7.0447,-7.053,-7.056,-7.0192,-7.0192,-7.0193,0,-6.9183,-6.9339,-6.9324,-6.9442,-6.9495,-6.9437,-6.957,-6.9615,-6.9707,-6.9743,-6.9688,-6.9884,-6.9923,-7.01,-7.0158,-7.0197,-7.023,-7.0166,-7.042,-7.0444,-7.0467,-7.0546,-7.0577,-7.0201,-7.02,-7.0199,-7.0198,0,-6.9467,-6.9575,-6.9674,-6.9765,-6.9829,-6.9954,-6.9956,-7.0022,-7.0002,-7.0014,-7.016,-7.0204,-7.0297,-7.0338,-7.032,-7.0512,-7.0479,-7.0423,-7.0323,-7.0508,-7.0582,-7.0612,-7.0212,-7.0209,-7.0207,-7.0205,0,0,-6.9765,-6.9845,-6.9882,-6.9921,-6.999,-7.0072,-7.0192,-7.0284,-7.034,-7.0404,-7.0503,-7.0638,-7.0585,-7.0635,-7.0621,-7.0705,-7.0888,-7.0637,-7.0638,-7.0681,-7.11,-7.1142,-7.1177,-7.0859,-7.0865,-7.0869,-7.1094,0,-6.9992,-7.0205,-7.0194,-7.0392,-7.049,-7.0435,-7.0539,-7.0591,-7.0605,-7.0688,-7.0702,-7.0797,-7.0721,-7.0751,-7.0831,-7.0849,-7.0972,-7.0832,-7.0949,-7.0953,-7.0935,-7.1216,-7.1262,-7.1472,-7.1123,-7.1128,-7.1131,0,-7.0286,-7.0361,-7.0569,-7.0621,-7.0661,-7.0756,-7.0837,-7.0919,-7.0975,-7.0979,-7.1034,-7.1005,-7.1124,-7.1021,-7.1183,-7.1089,-7.1135,-7.115,-7.1158,-7.1168,-7.1054,-7.1233,-7.1539,-7.157,-7.1177,-7.1173,-7.117,0,-7.0481,-7.0634,-7.0777,-7.0812,-7.0877,-7.0944,-7.0974,-7.1024,-7.1079,-7.115,-7.1185,-7.1268,-7.1313,-7.1377,-7.137,-7.1297,-7.1534,-7.1431,-7.1539,-7.1539,-7.1591,-7.1588,-7.1908,-7.1623,-7.1622,-7.1622,-7.1621,0,-7.0735,-7.0864,-7.0865,-7.0954,-7.1095,-7.108,-7.122,-7.1242,-7.1287,-7.1376,-7.1333,-7.1417,-7.1404,-7.1488,-7.1483,-7.1616,-7.1637,-7.1642,-7.1639,-7.1645,-7.1645,-7.1675,-7.166,-7.163,-7.1628,-7.1627,-7.1625,0,-7.0978,-7.0984,-7.1136,-7.1184,-7.1199,-7.1301,-7.1341,-7.1423,-7.1432,-7.1545,-7.1571,-7.1585,-7.1681,-7.168,-7.179,-7.1786,-7.1949,-7.193,-7.1931,-7.1927,-7.2033,-7.2023,-7.2384,-7.2429,-7.2116,-7.2119,-7.2121,0,-7.114,-7.1237,-7.1296,-7.1353,-7.1387,-7.148,-7.1535,-7.1523,-7.1582,-7.1653,-7.1726,-7.1818,-7.1891,-7.2046,-7.2065,-7.2147,-7.2129,-7.225,-7.2141,-7.2144,-7.2129,-7.2123,-7.2132,-7.2271,-7.2274,-7.2277,-7.228,0,-7.1425,-7.1423,-7.1506,-7.1589,-7.1657,-7.1722,-7.1781,-7.183,-7.1824,-7.1892,-7.199,-7.2047,-7.2158,-7.2249,-7.2328,-7.2356,-7.2317,-7.2313,-7.2342,-7.235,-7.2346,-7.2348,-7.1988,-7.2305,-7.2303,-7.2301,-7.2299,-7.2298,-7.1632,-7.1715,-7.1768,-7.1861,-7.1904,-7.1961,-7.2039,-7.2058,-7.214,-7.2231,-7.2217,-7.2326,-7.2377,-7.2479,-7.2513,-7.2597,-7.2554,-7.2596,-7.2607,-7.2617,-7.2629,-7.2333,-7.2611,-7.261,-7.261,-7.2609,-7.2608,0,-7.1914,-7.1945,-7.2031,-7.2115,-7.2187,-7.2145,-7.2207,-7.227,-7.2367,-7.2418,-7.2491,-7.2602,-7.2689,-7.2714,-7.2797,-7.2859,-7.2843,-7.2881,-7.2876,-7.2883,-7.2663,-7.2629,-7.2893,-7.2893,-7.2893,-7.2893,-7.2893,-7.2893,-7.207,-7.2208,-7.2211,-7.2369,-7.2398,-7.2506,-7.2545,-7.2595,-7.2636,-7.2762,-7.2835,-7.2851,-7.289,-7.2976,-7.3053,-7.3058,-7.309,-7.3136,-7.3133,-7.2927,-7.2899,-7.2871,-7.2839,-7.3143,-7.3144,-7.3346,-7.3348,-7.3349]}]]